User: anonymous   Login
Location: Unspecified
(0.0000°N, 0.0000°E)
Time: 06:10:51
(UTC+00:00)
Language:

Jikiken - Orbit

View from above orbital plane
View from above orbital plane
View from above satellite
View from above satellite

Ground track
Ground track

The orbit data is extracted from the following two-line orbital elements,

1 11027U 78087A   17296.31194707  .00803291 -23060-6  41615-3 0  9999
2 11027  31.0673 272.9899 2281803 125.9144 257.5271 11.17236933454209
Epoch (UTC): 23 October 2017 07:29:12
Eccentricity: 0.2281803
inclination: 31.0673°
perigee height: 145 km
apogee height: 4003 km
right ascension of ascending node: 272.9899°
argument of perigee: 125.9144°
revolutions per day: 11.17236933
mean anomaly at epoch: 257.5271°
orbit number at epoch: 45420

The dashed part of the orbit path shows where the satellite is in the earth's shadow,  

DLR